Fort Polk, LA

3:00 AM CDT on October 23, 2019 (GMT -0500)
Fort Polk

Weather History for KAQV - August, 2019

Change the Weather History Date:

Tuesday, August 20, 2019

  Actual Average (KPOE) Record (KPOE)
Temperature  
Mean Temperature 84 °F -  
Max Temperature 98 °F 89 °F 104 °F (1999)
Min Temperature 73 °F 71 °F 68 °F (2013)
Cooling Degree Days 19    
Growing Degree Days 34 (Base 50)    
Moisture  
Dew Point 74 °F    
Average Humidity 81    
Maximum Humidity 96    
Minimum Humidity 46    
Precipitation  
Precipitation 0.01 in - - ()
Sea Level Pressure  
Sea Level Pressure 30.01 in    
Wind  
Wind Speed 1 mph (East)    
Max Wind Speed 4 mph    
Max Gust Speed -    
Visibility 7 miles    
Events Thunderstorm    
Averages and records for this station are not official NWS values.
T = Trace of Precipitation, MM = Missing Value Source: NWS Daily Summary

Daily Weather History Graph

Daily Weather History Graph

Search for Another Location

Airport or City:

Astronomy

Aug. 20, 2019 Rise Set
Actual Time 6:41 AM CDT 7:51 PM CDT
Civil Twilight 6:16 AM CDT 8:16 PM CDT
Nautical Twilight 5:46 AM CDT 8:46 PM CDT
Astronomical Twilight 5:15 AM CDT 9:17 PM CDT
Moon 10:58 PM CDT (8/20) 11:03 AM CDT (8/20)
Length of Visible Light 13h 59m
Length of Day
13h 09m
Waning Gibbous, 77% of the Moon is Illuminated
Aug 20
Waning Gibbous
Aug 23
Last Quarter
Aug 30
New
Sep 5
First Quarter
Sep 13
Full

Hourly Weather History & Observations

Time (CDT) Temp. Heat Index Dew Point Humidity Pressure Visibility Wind Dir Wind Speed Gust Speed Precip Events Conditions
12:56 AM 75.9 °F - 73.9 °F 94% 29.98 in 6.0 mi Calm Calm - N/A   Clear
2:56 AM 75.0 °F - 73.0 °F 94% 29.99 in 4.0 mi Calm Calm - N/A   Partly Cloudy
4:28 AM 73.9 °F - 72.0 °F 93% 30.00 in 1.8 mi Calm Calm - N/A   Scattered Clouds
4:40 AM 73.9 °F - 72.0 °F 93% 30.00 in 3.0 mi Calm Calm - N/A   Scattered Clouds
4:56 AM 73.9 °F - 72.0 °F 93% 29.99 in 6.0 mi Calm Calm - N/A   Partly Cloudy
5:56 AM 73.0 °F - 72.0 °F 96% 30.00 in 5.0 mi Calm Calm - N/A   Clear
6:56 AM 73.9 °F - 72.0 °F 93% 30.02 in 4.0 mi Calm Calm - N/A   Clear
7:34 AM 75.0 °F - 73.0 °F 94% 30.05 in 4.0 mi Calm Calm - N/A   Mostly Cloudy
7:49 AM 75.0 °F - 73.0 °F 94% 30.04 in 3.0 mi Calm Calm - N/A   Overcast
7:56 AM 75.0 °F - 73.0 °F 94% 30.04 in 4.0 mi Calm Calm - N/A   Overcast
8:56 AM 79.0 °F - 75.9 °F 90% 30.04 in 9.0 mi Calm Calm - N/A   Scattered Clouds
9:56 AM 84.0 °F 93.7 °F 77.0 °F 79% 30.04 in 10.0 mi Calm Calm - N/A   Partly Cloudy
10:56 AM 89.1 °F 100.2 °F 75.9 °F 65% 30.04 in 10.0 mi Calm Calm - N/A   Partly Cloudy
11:46 AM 91.9 °F 103.2 °F 75.0 °F 58% 30.04 in 10.0 mi Calm Calm - N/A   Mostly Cloudy
11:56 AM 91.9 °F 100.7 °F 73.0 °F 54% 30.03 in 10.0 mi Variable 3.5 mph - N/A   Mostly Cloudy
12:56 PM 90.0 °F 99.0 °F 73.9 °F 59% 30.03 in 10.0 mi NNE 3.5 mph - N/A   Overcast
1:56 PM 93.9 °F 103.4 °F 73.0 °F 51% 30.01 in 10.0 mi Variable 3.5 mph - N/A   Partly Cloudy
2:56 PM 95.0 °F 102.5 °F 71.1 °F 46% 29.98 in 10.0 mi Variable 3.5 mph - N/A   Clear
3:56 PM 95.0 °F 103.2 °F 72.0 °F 47% 29.97 in 10.0 mi Variable 3.5 mph - N/A   Partly Cloudy
5:17 PM 88.0 °F 96.5 °F 73.9 °F 63% 29.99 in 10.0 mi South 3.5 mph - N/A Thunderstorm Thunderstorm
5:56 PM 82.9 °F 90.2 °F 75.0 °F 77% 30.00 in 10.0 mi Variable 3.5 mph - N/A Thunderstorm Thunderstorm
6:56 PM 79.0 °F - 75.0 °F 88% 29.98 in 10.0 mi Variable 3.5 mph - 0.01 in   Scattered Clouds
7:56 PM 78.1 °F - 73.9 °F 87% 29.99 in 10.0 mi Calm Calm - N/A   Clear
8:56 PM 77.0 °F - 73.9 °F 90% 30.00 in 10.0 mi Calm Calm - N/A   Clear
9:56 PM 75.9 °F - 73.9 °F 94% 30.03 in 8.0 mi Calm Calm - N/A   Clear
10:56 PM 75.9 °F - 73.9 °F 94% 30.04 in 6.0 mi Calm Calm - N/A   Clear
11:56 PM 75.0 °F - 73.0 °F 94% 30.04 in 6.0 mi Calm Calm - N/A   Clear